Flag for Canada Weather past 2 weeks in Kingston, Ontario, Canada

Now
50 °F

Passing clouds.


Feels Like: 47 °F
Forecast: 43 / 57 °F
Wind: 8 mph from West

Location: Kingston

Current Time: Oct 24, 2014 at 8:55:34 PM

Latest Report: Oct 24, 2014 at 8:00 PM


Visibility: 15 mi

Pressure: 29.88 "Hg

Humidity: 82%

Dew point: 45 °F

Location of KingstonLocation

Historic Weather in Kingston — Graph

°F

Kingston temperature yesterday

Maximum temperature yesterday: 57 °F (at 1:00 PM)
Minimum temperature yesterday: 45 °F (at 6:00 AM)
Average temperature yesterday: 52 °F

Past Weeks' High & Low Weather Summary

 TemperatureHumidityPressure
High70 °F (Oct 14, 2:00 PM)100% (Oct 12, 8:00 AM)30.31 "Hg (Oct 12, 8:00 AM)
Low32 °F (Oct 12, 7:00 AM)46% (Oct 19, 3:00 PM)29.47 "Hg (Oct 18, 6:00 AM)
Average53 °F78%29.94 "Hg
* Reported Oct 9 7:00 PM — Oct 24 7:00 PM, Kingston, Weather by CustomWeather, © 2014

Note: Actual official high and low records may vary slightly from our data, if they occured in-between our weather recording intervals... More about our weather records

Advertising

Kingston weather history for previous 24 hours

 ConditionsComfort  
Time TempWeatherWind HumidityBarometerVisibility
7:00 PM
Oct 24
54 °FScattered clouds.12 mph77%29.87 "Hg15 mi
6:00 PM55 °FPassing clouds.15 mph72%29.86 "Hg15 mi
5:00 PM61 °FPassing clouds.12 mph48%29.85 "Hg15 mi
4:00 PM57 °FPassing clouds.13 mph67%29.86 "Hg15 mi
3:00 PM61 °FPassing clouds.10 mph59%29.88 "Hg15 mi
2:00 PM61 °FPassing clouds.9 mph52%29.89 "Hg15 mi
1:00 PM59 °FPassing clouds.7 mph55%29.91 "Hg15 mi
12:00 PM57 °FPassing clouds.5 mph55%29.93 "Hg15 mi
11:00 AM54 °FPassing clouds.7 mph58%29.94 "Hg15 mi
10:00 AM50 °FScattered clouds.8 mph67%29.96 "Hg15 mi
9:00 AM46 °FScattered clouds.6 mph71%29.96 "Hg15 mi
8:00 AM41 °FPassing clouds.2 mph87%29.95 "Hg15 mi
7:00 AM43 °FPassing clouds.7 mph81%29.95 "Hg15 mi
6:00 AM46 °FOvercast.5 mph76%29.96 "Hg15 mi
11:00 PM
Oct 23
50 °FPassing clouds.3 mph82%29.99 "Hg15 mi
10:00 PM50 °FPassing clouds.6 mph88%29.99 "Hg15 mi
9:00 PM54 °FOvercast.10 mph77%29.99 "Hg15 mi
8:00 PM54 °FOvercast.10 mph77%29.98 "Hg15 mi
Weather by CustomWeather, © 2014

See weather overviewHow to use our weather pages